Wind_Speed
21 21 21 21 21 21 21 20 20 20 20 20 19 19 20 20 20 19 18 18 18 18 18 18 18 18 18 18 18 17 17 17 17 17 17 17 18 18 18 17 18 18 18
22 22 22 22 22 22 21 21 21 21 21 21 21 21 21 21 21 20 20 19 19 19 19 19 18 18 19 19 19 19 18 18 18 18 18 18 18 19 19 19 19 19 19
23 22 22 22 21 21 21 21 21 21 22 22 22 22 22 22 22 22 21 21 21 21 21 21 20 20 20 20 20 20 20 20 20 19 19 19 19 19 19 19 19 19 20
24 23 23 22 22 22 22 21 22 22 22 23 23 23 22 22 23 22 22 21 21 22 22 22 22 21 21 21 21 22 21 21 21 20 20 20 20 20 20 19 19 20 20
24 24 23 23 22 22 22 22 22 22 23 23 23 23 22 22 22 22 22 22 22 22 23 23 22 22 23 23 23 23 22 22 22 22 22 21 21 20 20 20 20 20 20
23 24 23 23 23 23 23 22 22 22 22 22 23 23 23 23 23 22 22 23 23 23 23 23 24 24 24 24 25 25 24 23 23 23 22 22 22 22 21 22 22 22 21
24 24 25 24 24 24 24 23 22 23 22 22 22 23 23 23 23 24 23 23 23 23 24 25 25 25 25 25 25 25 25 25 24 24 23 23 23 23 23 23 23 23 23
25 25 25 25 25 24 24 24 23 23 23 23 23 23 23 23 23 23 23 23 23 23 23 24 25 25 25 25 25 25 25 25 25 24 24 24 24 24 24 24 24 24 25
26 25 25 25 26 26 26 25 25 24 25 24 24 23 23 23 23 23 23 23 23 23 23 23 25 25 25 25 25 25 25 25 25 25 25 25 25 25 25 25 25 25 25
25 25 25 25 25 26 26 26 25 25 25 25 25 24 24 24 24 24 23 23 23 23 23 23 23 23 23 23 24 24 25 25 25 25 25 26 26 26 26 26 26 26 25
25 25 25 25 25 26 25 25 26 26 25 25 25 25 24 24 24 24 24 23 23 24 24 24 24 24 23 24 24 24 25 25 25 25 25 26 26 26 26 26 27 27 26
25 25 25 25 24 25 25 25 26 26 26 25 25 25 24 24 23 23 24 24 24 24 24 24 25 26 25 25 25 25 25 25 25 26 26 26 26 26 26 27 27 27 27
26 25 25 25 25 25 25 24 24 25 25 25 25 24 24 24 23 22 23 23 24 24 24 25 25 26 26 25 25 25 25 25 25 25 25 25 26 26 26 26 27 27 27
25 26 25 25 25 24 24 24 23 24 24 23 23 23 23 23 23 24 23 23 24 23 23 24 24 25 25 25 25 25 25 25 25 25 25 25 26 26 26 26 26 27 27
24 24 25 24 24 23 23 23 22 22 23 22 23 23 22 23 23 24 25 25 24 24 25 24 24 24 25 25 26 26 26 26 26 26 26 25 26 26 26 26 26 26 26
23 23 23 22 22 22 21 21 21 21 22 22 22 23 24 24 25 25 25 26 26 26 25 25 25 25 25 26 26 26 26 27 27 27 26 26 26 26 26 26 26 26 26
22 22 22 21 21 20 21 21 21 21 22 22 22 23 24 24 25 26 26 26 27 27 27 27 27 26 26 26 26 26 27 27 28 28 27 27 26 26 26 25 26 26 26
22 21 21 21 20 20 21 21 22 22 22 22 22 23 24 23 24 24 25 26 26 27 27 27 27 27 27 27 27 27 27 27 28 28 28 27 27 27 26 26 26 26 26
21 21 21 21 21 22 22 21 22 23 23 23 23 23 23 24 24 24 25 25 26 27 27 27 27 28 27 27 27 27 27 27 27 26 26 26 26 26 25 25 25 25 27
21 21 21 21 22 21 21 22 22 23 22 22 22 22 22 23 23 24 25 25 26 26 26 26 27 27 27 27 27 27 27 26 26 26 25 25 25 24 24 25 25 25 25
22 22 22 22 22 22 21 22 22 21 21 22 22 22 22 22 22 22 23 23 23 24 24 25 26 26 27 27 28 27 27 26 26 26 26 25 25 24 24 24 24 25 26
22 22 22 21 21 21 21 22 22 22 22 23 22 22 21 21 21 22 22 21 21 22 22 23 24 25 26 26 27 27 27 27 27 27 27 27 26 25 25 26 25 26 26
21 22 22 21 20 20 20 21 21 21 21 22 22 22 22 21 20 20 21 21 21 21 22 23 23 24 24 25 25 25 26 27 28 27 27 26 26 26 26 26 26 26 26
21 21 21 20 20 20 20 20 20 21 21 21 22 21 21 21 21 21 21 21 22 22 22 22 23 24 24 23 23 23 25 26 26 27 26 26 27 26 26 26 26 26 26
21 21 21 21 20 20 19 19 20 20 20 20 20 20 20 21 21 22 22 21 21 21 22 22 22 22 22 22 23 23 24 24 25 26 26 26 26 26 26 26 26 27 27
21 21 22 21 21 21 20 19 19 19 19 20 20 20 20 20 21 21 21 21 21 22 22 21 22 22 22 23 23 23 23 24 25 25 24 25 25 26 27 26 26 27 27
Wind_Direction
284 286 286 285 287 285 283 281 278 274 272 271 271 270 271 271 270 270 268 268 268 268 267 267 268 270 269 269 269 270 271 273 275 275 275 274 273 269 268 268 266 266 266
282 285 286 286 285 283 281 280 278 274 272 271 270 271 272 273 269 269 268 265 267 267 267 267 269 271 270 268 269 272 273 274 274 274 275 276 275 272 270 269 271 269 267
281 284 285 286 283 283 281 279 277 275 274 273 273 272 271 270 269 270 269 267 265 266 267 267 268 270 268 267 268 271 274 274 275 276 276 277 276 274 271 270 269 269 270
280 282 284 284 281 282 281 278 277 276 274 274 274 273 271 271 270 271 270 269 267 267 265 265 266 268 267 267 269 271 273 274 275 276 277 278 277 274 271 270 271 271 271
278 280 281 281 279 279 280 279 279 278 275 274 274 273 272 273 271 270 269 270 270 268 265 265 266 266 267 269 269 270 273 274 275 276 277 277 275 274 271 270 270 272 271
276 277 278 279 278 277 278 279 279 277 275 274 274 273 273 273 273 271 270 270 270 269 265 264 265 266 267 268 268 269 271 274 274 275 275 276 274 274 273 272 271 271 271
278 277 276 277 278 278 278 278 277 277 275 275 274 274 273 272 273 273 271 270 268 268 267 266 267 267 266 267 270 270 271 273 274 275 275 275 274 275 274 274 272 271 271
278 277 276 275 276 274 275 276 276 275 274 274 274 273 271 270 271 271 272 271 269 267 268 268 267 267 266 267 269 269 271 272 273 274 274 274 274 275 274 273 272 271 271
279 277 275 275 275 275 276 276 275 273 273 273 272 271 270 270 269 270 271 271 271 269 269 270 268 269 269 268 268 269 270 271 272 272 273 273 273 274 274 273 271 271 271
279 279 276 275 275 275 276 276 274 273 273 272 270 270 270 270 269 269 270 269 271 272 270 270 271 270 270 270 270 270 270 271 273 273 273 272 273 274 273 272 270 270 271
279 279 277 277 276 275 275 276 274 270 270 271 270 270 269 269 269 270 269 269 270 272 272 272 272 272 272 270 269 271 272 273 274 273 273 273 273 273 272 271 271 271 272
280 282 280 277 277 278 278 277 274 270 268 268 269 268 268 268 268 269 269 269 271 273 272 272 272 272 272 271 270 272 274 275 275 273 273 273 274 274 273 271 272 272 273
281 281 280 276 276 277 277 276 273 269 269 268 268 268 268 268 266 268 270 271 273 275 274 272 272 272 272 270 271 272 274 275 275 274 274 275 276 277 275 273 272 273 273
285 282 281 279 278 277 275 274 273 270 270 269 268 269 269 268 268 269 271 272 273 275 275 274 271 270 270 270 270 272 273 274 275 275 274 275 276 276 275 273 272 273 274
287 284 282 281 280 277 275 275 275 274 273 271 269 267 269 270 269 268 269 271 272 273 275 274 272 271 271 272 272 273 274 275 276 276 275 274 275 275 274 273 272 272 273
289 288 286 281 279 278 277 277 278 277 276 274 274 272 272 272 271 269 269 269 270 272 274 275 274 272 271 271 272 272 273 273 274 275 275 275 275 274 274 273 272 273 274
288 287 285 284 282 280 278 277 279 281 282 281 278 277 276 275 274 271 268 268 269 271 273 274 273 273 271 270 271 272 274 275 275 275 275 275 275 274 274 273 274 275 275
286 287 285 283 281 280 280 280 282 284 283 281 280 279 279 278 277 275 271 269 269 271 273 273 272 271 271 270 270 271 273 276 276 276 275 276 275 274 273 274 275 275 275
285 285 283 282 281 279 281 282 284 285 284 282 281 280 279 278 278 277 273 272 272 272 272 272 271 271 271 271 271 270 272 275 276 276 276 276 275 274 273 273 275 274 273
285 285 284 282 283 282 281 281 283 284 283 282 281 280 279 279 278 277 275 274 274 274 274 273 272 271 269 270 271 270 271 273 274 273 274 274 274 275 274 273 274 276 275
285 284 284 284 284 283 283 282 284 285 284 282 282 282 282 283 282 279 279 279 277 277 275 273 272 271 270 270 270 270 269 270 272 272 272 272 274 275 274 274 275 276 277
284 284 284 283 283 284 284 283 283 284 286 286 285 283 283 285 285 283 281 282 282 281 279 276 275 272 271 271 272 271 271 272 272 272 271 272 273 274 274 274 274 277 279
285 284 284 284 284 284 284 284 284 284 286 286 285 284 284 285 284 283 283 284 286 284 281 278 277 276 275 274 273 274 274 274 273 273 273 273 274 274 274 275 277 278 280
285 284 285 286 286 284 285 286 285 285 286 287 285 284 284 283 282 282 284 285 286 284 281 279 278 277 276 275 275 276 277 277 274 272 272 273 273 274 274 274 276 278 281
284 284 283 284 286 285 287 287 287 287 286 288 286 283 284 284 283 281 282 285 285 283 281 279 281 280 278 277 277 277 277 278 278 276 274 273 273 275 276 276 277 279 281
284 284 284 283 284 284 285 286 285 286 286 287 286 283 284 286 286 285 283 284 283 282 282 282 282 280 279 279 279 278 277 276 277 277 277 276 275 276 277 277 278 280 282
Height
5821 5820 5819 5819 5818 5817 5817 5816 5817 5817 5817 5818 5818 5819 5820 5820 5820 5821 5822 5823 5824 5825 5826 5827 5828 5828 5829 5829 5829 5830 5830 5831 5831 5831 5830 5831 5831 5831 5831 5831 5832 5832 5833
5815 5815 5814 5814 5813 5812 5812 5812 5812 5812 5812 5812 5813 5814 5814 5815 5815 5816 5817 5818 5819 5820 5821 5822 5823 5823 5824 5824 5825 5825 5826 5826 5826 5826 5826 5826 5826 5826 5826 5827 5827 5827 5828
5810 5810 5809 5808 5808 5807 5807 5807 5807 5807 5807 5807 5807 5808 5809 5809 5810 5811 5812 5812 5814 5815 5815 5816 5817 5818 5818 5819 5820 5820 5820 5821 5821 5821 5821 5821 5821 5821 5821 5821 5821 5822 5822
5805 5804 5804 5803 5803 5802 5802 5802 5801 5801 5802 5802 5802 5802 5803 5803 5804 5805 5806 5807 5807 5808 5810 5810 5811 5812 5813 5813 5814 5815 5815 5815 5815 5815 5815 5815 5815 5815 5815 5815 5816 5816 5816
5799 5798 5798 5798 5797 5797 5796 5796 5796 5796 5796 5796 5796 5796 5797 5798 5798 5799 5800 5801 5801 5802 5803 5804 5805 5806 5807 5808 5808 5809 5809 5809 5809 5809 5809 5809 5809 5809 5809 5810 5810 5810 5810
5793 5793 5792 5792 5791 5791 5790 5790 5790 5790 5790 5790 5790 5791 5791 5792 5792 5793 5794 5794 5795 5796 5797 5798 5799 5800 5800 5801 5802 5802 5802 5803 5803 5803 5803 5803 5803 5803 5803 5803 5803 5803 5804
5787 5787 5786 5785 5785 5784 5784 5784 5784 5783 5783 5784 5784 5785 5785 5786 5786 5787 5787 5788 5789 5789 5790 5791 5792 5792 5793 5794 5795 5795 5795 5795 5796 5796 5796 5796 5796 5796 5796 5796 5796 5797 5797
5780 5780 5780 5779 5778 5778 5777 5777 5777 5777 5777 5778 5778 5778 5779 5779 5780 5780 5781 5782 5782 5783 5784 5785 5785 5785 5786 5787 5787 5788 5788 5788 5789 5789 5789 5789 5789 5789 5789 5789 5789 5790 5790
5774 5774 5773 5773 5772 5772 5772 5771 5770 5770 5770 5771 5771 5772 5772 5773 5774 5774 5775 5776 5776 5777 5777 5778 5778 5778 5779 5779 5780 5780 5781 5781 5781 5782 5782 5782 5782 5782 5782 5782 5782 5783 5783
5768 5768 5767 5766 5765 5765 5765 5764 5763 5763 5763 5764 5764 5765 5765 5766 5767 5768 5768 5769 5770 5770 5771 5771 5771 5772 5772 5772 5772 5773 5774 5774 5774 5774 5774 5775 5775 5775 5775 5775 5775 5775 5775
5762 5761 5760 5759 5759 5758 5757 5757 5756 5756 5756 5756 5757 5758 5759 5759 5760 5761 5761 5762 5763 5763 5764 5764 5765 5765 5765 5766 5766 5766 5767 5767 5767 5767 5767 5767 5767 5767 5767 5767 5767 5767 5767
5755 5754 5753 5752 5751 5751 5750 5750 5749 5749 5749 5750 5750 5750 5751 5752 5753 5754 5755 5755 5756 5756 5757 5757 5758 5758 5758 5759 5759 5759 5760 5759 5759 5759 5759 5759 5759 5759 5759 5759 5759 5759 5759
5748 5747 5746 5745 5744 5744 5743 5742 5742 5742 5742 5742 5743 5744 5745 5745 5746 5747 5747 5748 5749 5749 5749 5750 5750 5750 5751 5751 5752 5752 5752 5752 5751 5751 5751 5752 5751 5751 5751 5751 5751 5751 5751
5740 5739 5738 5737 5736 5736 5736 5735 5735 5735 5735 5735 5736 5737 5737 5738 5739 5740 5740 5741 5741 5741 5742 5742 5743 5743 5744 5744 5744 5744 5745 5744 5744 5744 5744 5744 5743 5743 5742 5742 5743 5743 5743
5733 5732 5731 5729 5729 5729 5729 5728 5728 5728 5728 5729 5729 5729 5730 5731 5731 5732 5733 5733 5734 5734 5734 5734 5735 5736 5736 5736 5736 5737 5737 5737 5736 5736 5736 5736 5735 5735 5734 5734 5734 5734 5734
5727 5725 5724 5723 5722 5722 5722 5722 5722 5722 5721 5721 5721 5722 5722 5723 5724 5724 5724 5725 5725 5726 5726 5727 5727 5727 5728 5728 5729 5729 5729 5728 5728 5728 5727 5727 5727 5726 5726 5725 5725 5725 5725
5720 5719 5718 5717 5716 5716 5716 5716 5716 5716 5715 5714 5714 5714 5715 5715 5716 5716 5716 5717 5717 5718 5718 5719 5719 5719 5720 5720 5720 5720 5720 5719 5719 5719 5718 5718 5718 5717 5717 5717 5717 5717 5717
5714 5713 5712 5711 5710 5710 5710 5709 5709 5709 5708 5708 5708 5707 5707 5708 5708 5707 5707 5708 5709 5709 5710 5710 5710 5711 5711 5711 5712 5712 5712 5711 5710 5710 5710 5709 5709 5709 5708 5708 5708 5708 5708
5708 5707 5706 5705 5704 5704 5703 5703 5702 5702 5701 5701 5701 5701 5700 5700 5700 5700 5700 5700 5701 5701 5701 5701 5702 5702 5702 5703 5703 5703 5703 5703 5702 5702 5702 5701 5700 5700 5700 5700 5700 5699 5698
5702 5701 5700 5699 5698 5697 5697 5696 5696 5695 5694 5694 5694 5693 5693 5693 5692 5692 5691 5692 5692 5692 5692 5693 5693 5693 5694 5694 5695 5695 5695 5694 5694 5694 5694 5693 5693 5692 5692 5692 5691 5690 5690
5696 5695 5694 5693 5692 5691 5690 5690 5689 5688 5687 5687 5686 5686 5685 5685 5684 5684 5684 5684 5684 5684 5684 5684 5685 5685 5685 5685 5686 5686 5686 5686 5686 5686 5685 5685 5685 5684 5684 5684 5683 5683 5682
5689 5688 5688 5687 5686 5685 5684 5683 5682 5682 5681 5680 5679 5679 5678 5678 5677 5676 5677 5677 5677 5676 5676 5676 5676 5677 5677 5677 5677 5677 5678 5677 5677 5677 5677 5677 5677 5676 5676 5675 5674 5674 5674
5683 5682 5681 5681 5680 5679 5678 5677 5676 5675 5674 5673 5673 5672 5672 5671 5671 5670 5670 5670 5669 5669 5669 5669 5669 5668 5668 5669 5669 5669 5669 5669 5669 5669 5669 5669 5668 5668 5668 5667 5666 5666 5665
5677 5676 5675 5674 5673 5673 5672 5671 5670 5669 5668 5668 5667 5666 5665 5665 5665 5664 5663 5663 5663 5662 5662 5661 5661 5661 5660 5661 5661 5661 5661 5661 5661 5660 5660 5660 5660 5660 5659 5659 5658 5658 5656
5670 5670 5669 5668 5667 5667 5666 5665 5664 5663 5662 5662 5661 5660 5660 5659 5658 5657 5657 5656 5656 5655 5655 5654 5654 5653 5653 5653 5653 5652 5652 5652 5652 5652 5651 5651 5651 5651 5651 5650 5649 5649 5648
5664 5663 5662 5662 5661 5660 5660 5659 5658 5657 5657 5656 5655 5655 5654 5653 5652 5651 5650 5650 5649 5649 5648 5647 5647 5647 5646 5646 5645 5645 5645 5644 5644 5644 5644 5643 5643 5643 5642 5641 5641 5640 5639